sat.trackr.live / text

‹ back to catalog

STARLINK-35134

NORAD 65641 · 2025-210V

PAYLOAD ACTIVE UNKNOWN

§ Identity

Operator
Country
US
Launch date
2025-09-18
Launch site
AFETR
Launch vehicle
Mass (kg)
RCS (m²)

Purposes: comms

External: N2YO · Heavens-Above · Gunter

§ Orbital elements

Epoch: 2026-05-25T03:39:56.804256Z

Period
93.85 min
Inclination
53.1596°
Eccentricity
0.0001294
Mean motion
15.34401834 rev/d
Perigee alt
461.8 km
Apogee alt
463.6 km
Semi-major
6,840.8 km
B*
6.9521e-4
RAAN
310.7989°
Arg perigee
62.4661°
Mean anomaly
297.6473°
Rev number
3,945

§ Raw data

STARLINK-351341 65641U 25210V   26145.15274079  .00023187  00000+0  69521-3 0  99912 65641  53.1596 310.7989 0001294  62.4661 297.6473 15.34401834 39453

JSON: /api/v1/satellites/65641 · /tle

For live sub-satellite position, see the globe view (requires WebGL).

§ Visibility from observer

Set your observer location to see the next 7 days of passes ≥ 10°. The values pass through the URL so the page stays shareable.

No JS? Fill the form by hand. The geolocation button needs JavaScript.